Date,TemperatureHighF,TemperatureAvgF,TemperatureLowF,DewpointHighF,DewpointAvgF,DewpointLowF,HumidityHigh,HumidityAvg,HumidityLow,PressureMaxIn,PressureMinIn,WindSpeedMaxMPH,WindSpeedAvgMPH,GustSpeedMaxMPH,PrecipitationSumIn
2012-7-16,95,89,80,71,64,56,67,45,30,29.92,29.76,14,4,14,0.00
2012-7-17,98,87,77,72,67,64,73,54,35,29.78,29.67,18,4,20,0.00
2012-7-18,90,79,71,71,68,66,88,71,48,29.89,29.73,13,3,14,0.03
2012-7-19,81,73,65,72,68,63,95,86,70,29.88,29.80,16,3,16,0.26
2012-7-20,81,70,60,63,58,54,93,67,40,30.00,29.88,18,5,18,0.02
2012-7-21,86,71,53,64,58,51,96,69,42,30.05,29.95,14,2,14,0.00
2012-7-22,90,77,62,69,65,60,96,68,44,30.02,29.94,19,3,20,0.00
2012-7-23,92,83,73,73,69,65,86,63,49,29.96,29.74,20,5,22,0.01
2012-7-24,86,79,65,70,64,54,80,60,35,29.90,29.75,18,4,18,0.00
2012-7-25,89,74,52,75,61,50,95,68,45,29.91,29.55,19,4,19,0.00
2012-7-26,82,78,72,76,71,68,90,79,67,29.66,29.52,17,4,17,0.09
2012-7-27,83,71,64,70,66,61,96,85,54,29.84,29.64,14,2,19,0.03
2012-7-28,83,70,60,65,61,56,96,75,46,30.02,29.84,15,3,15,0.01
2012-7-29,86,70,52,62,56,50,96,65,31,30.06,29.93,11,1,11,0.00
2012-7-30,89,74,58,65,60,55,96,65,32,29.97,29.83,13,2,13,0.00
2012-7-31,86,75,64,68,64,61,93,70,45,29.90,29.77,25,2,25,0.08
2012-8-1,85,71,59,64,58,50,96,67,32,29.87,29.80,16,2,16,0.00
2012-8-2,90,73,55,68,60,51,95,67,31,29.85,29.76,13,2,13,0.00
2012-8-3,94,79,60,68,62,58,94,62,31,29.87,29.80,13,2,13,0.00
2012-8-4,89,78,65,74,69,63,96,77,58,29.89,29.72,22,3,25,0.02
2012-8-5,85,75,63,71,62,50,93,69,36,30.05,29.75,24,5,24,0.04
2012-8-6,83,68,49,57,52,48,96,62,32,30.11,29.95,12,2,12,0.00
2012-8-7,88,72,51,63,56,49,96,63,35,29.95,29.83,16,3,16,0.00
2012-8-8,88,74,60,66,60,55,95,65,35,29.90,29.85,17,2,17,0.00
2012-8-9,71,65,62,63,61,56,95,87,59,29.89,29.72,11,3,11,1.12
2012-8-10,64,62,59,62,60,57,96,94,88,29.73,29.59,15,3,15,0.54
2012-8-11,72,62,58,62,59,56,96,91,72,29.89,29.67,15,4,15,0.16
2012-8-12,78,68,58,61,58,54,95,74,48,29.95,29.88,15,3,15,0.00
2012-8-13,73,66,61,63,60,59,96,84,62,29.94,29.87,9,1,9,0.05
2012-8-14,78,66,58,64,60,56,96,83,50,29.88,29.81,11,2,11,0.51
2012-8-15,82,67,55,65,60,54,97,81,50,29.91,29.84,11,1,11,0.00
2012-8-16,79,70,62,67,63,59,96,81,59,29.90,29.69,17,3,17,0.09
2012-8-17,74,66,58,63,56,50,94,74,46,29.91,29.77,15,3,17,0.01
2012-8-18,75,60,45,55,48,42,96,69,35,29.98,29.88,10,1,10,0.00
2012-8-19,77,62,50,57,51,47,97,71,37,29.91,29.83,10,1,10,0.00
2012-8-20,76,62,49,59,52,48,97,74,40,29.93,29.86,11,1,11,0.00
2012-8-21,78,64,50,60,54,49,97,75,41,30.04,29.93,11,1,11,0.00
2012-8-22,80,65,49,61,53,48,97,71,36,30.09,30.00,17,1,17,0.00
2012-8-23,86,68,50,62,55,49,97,69,33,30.09,30.00,10,1,10,0.00
2012-8-24,88,72,55,63,58,53,95,65,35,30.06,29.97,13,2,13,0.00
2012-8-25,89,71,58,65,60,52,96,73,31,30.04,29.99,16,2,16,0.00
2012-8-26,89,76,62,68,63,58,96,69,38,30.05,29.92,14,3,14,0.00
2012-8-27,83,73,66,72,67,61,96,84,53,29.95,29.86,13,1,13,0.22
2012-8-28,78,67,56,61,57,54,95,73,46,30.04,29.94,15,2,15,0.00
2012-8-29,80,65,51,62,56,49,97,77,45,30.06,29.96,8,1,8,0.00
2012-8-30,83,67,51,63,58,50,97,75,44,30.05,29.93,14,2,16,0.00
2012-8-31,90,77,60,72,65,56,93,68,53,29.98,29.91,22,3,22,0.00
2012-9-1,80,74,67,70,63,58,95,71,56,30.04,29.94,10,2,10,0.00
2012-9-2,78,72,67,71,65,58,85,79,70,29.97,29.86,15,4,15,0.00
2012-9-3,88,75,61,72,66,58,92,76,57,29.89,29.78,12,2,12,0.00
2012-9-4,81,72,64,71,68,63,97,87,65,29.83,29.76,12,1,12,0.00
2012-9-5,78,70,62,71,67,61,97,89,71,29.82,29.70,18,2,18,0.08
2012-9-6,84,72,64,68,64,60,97,78,46,29.84,29.74,11,2,11,0.00
2012-9-7,80,67,54,68,60,53,97,80,47,29.85,29.61,18,2,18,0.05
2012-9-8,70,61,53,58,53,49,95,77,53,29.80,29.60,20,4,22,0.58
2012-9-9,70,57,46,56,50,45,97,80,47,30.05,29.79,11,1,11,0.00
2012-9-10,73,57,42,54,46,40,97,73,35,30.19,30.05,10,1,10,0.00
2012-9-11,79,62,44,58,51,42,96,72,45,30.18,30.07,15,2,16,0.00
2012-9-12,82,68,55,61,56,50,87,67,43,30.17,30.08,15,2,15,0.00
2012-9-13,81,69,60,64,58,52,91,70,38,30.18,30.09,14,2,14,0.00
2012-9-14,71,60,51,57,51,44,95,76,41,30.23,30.14,16,2,18,0.60
2012-9-15,72,56,42,52,46,41,96,73,36,30.28,30.11,9,1,11,0.00
2012-9-16,76,61,45,56,50,43,96,71,40,30.18,29.96,8,1,9,0.00
2012-9-17,75,64,50,62,53,46,90,70,48,29.98,29.64,11,2,12,0.11
2012-9-18,65,57,42,62,49,35,93,76,53,29.92,29.55,25,4,27,0.03
2012-9-19,66,52,35,44,38,34,96,64,36,30.08,29.92,15,3,16,0.00
2012-9-20,69,58,47,56,47,39,91,66,51,29.93,29.78,18,4,18,0.12
2012-9-21,69,54,42,51,44,38,96,75,33,29.89,29.73,18,2,18,0.20
2012-9-22,55,50,44,50,47,42,96,90,74,30.04,29.67,17,3,17,0.15
2012-9-23,56,48,38,46,41,35,96,80,53,30.18,30.04,16,3,16,0.01
2012-9-24,63,50,34,42,37,33,96,65,37,30.18,29.91,19,3,21,0.00
2012-9-25,67,58,46,58,47,36,95,69,48,29.91,29.81,15,3,15,0.00
2012-9-26,69,62,52,63,58,48,96,88,70,30.07,29.82,11,2,11,0.00
2012-9-27,64,53,45,48,44,42,93,74,47,30.18,30.07,18,3,18,0.00
2012-9-28,68,55,45,51,47,43,96,77,45,30.12,30.02,11,1,11,0.00
2012-9-29,71,54,41,49,44,40,97,73,38,30.04,29.87,13,2,13,0.00
2012-9-30,65,52,42,50,45,40,96,79,46,29.91,29.86,17,2,17,0.00
2012-10-1,65,51,36,54,44,35,97,78,49,29.92,29.81,10,1,10,0.00
2012-10-2,66,58,51,56,52,47,94,82,63,29.85,29.76,16,3,16,0.08
2012-10-3,65,60,56,59,55,53,96,85,71,30.00,29.83,14,2,15,0.00
2012-10-4,75,64,53,59,54,50,90,72,45,30.04,29.93,23,4,23,0.02
2012-10-5,62,52,43,58,47,41,93,83,69,30.01,29.91,16,5,17,0.23
2012-10-6,47,42,37,41,37,34,94,83,63,30.09,29.90,18,4,19,0.00
2012-10-7,44,41,37,41,38,36,95,90,81,30.12,30.05,7,1,7,0.03
2012-10-8,54,40,29,38,31,27,96,73,42,30.19,30.06,13,2,16,0.01
2012-10-9,61,48,36,41,36,30,82,64,44,30.09,29.80,20,4,21,0.00
2012-10-10,51,44,36,42,36,30,93,75,57,30.13,29.75,26,6,26,0.13
2012-10-11,61,45,27,41,32,26,95,66,36,30.16,30.00,24,4,24,0.00
2012-10-12,53,42,32,39,32,23,93,68,32,30.39,30.13,14,2,14,0.00
2012-10-13,62,44,34,61,40,29,96,87,78,30.35,29.86,16,3,16,0.95
2012-10-14,69,64,55,62,60,50,95,86,71,29.86,29.37,34,8,34,0.05
2012-10-15,54,48,45,50,43,40,92,83,75,29.90,29.45,25,7,25,0.02
2012-10-16,60,49,34,43,39,32,95,71,48,29.95,29.68,17,3,17,0.00
2012-10-17,73,61,53,55,49,43,94,67,43,29.70,29.48,22,6,22,0.51
2012-10-18,60,55,49,55,45,37,92,71,47,29.59,29.29,39,6,39,0.47
2012-10-19,54,47,44,45,42,38,95,81,66,29.59,29.48,16,4,16,0.17
2012-10-20,55,48,44,47,43,42,95,86,67,29.87,29.53,18,4,18,0.00
2012-10-21,61,48,38,47,42,36,96,79,49,30.05,29.87,14,2,16,0.01
2012-10-22,70,54,38,59,49,36,97,83,63,30.05,29.90,10,2,11,0.06
2012-10-23,73,64,58,61,58,56,96,83,65,29.94,29.83,14,3,14,0.09
2012-10-24,77,66,59,62,59,57,94,80,59,29.95,29.88,17,3,17,0.03
2012-10-25,75,66,56,61,56,52,87,71,52,29.91,29.76,23,6,24,0.00
2012-10-26,68,48,39,57,41,33,90,77,63,30.18,29.77,22,5,24,0.04
2012-10-27,52,43,36,38,34,31,85,71,53,30.18,30.09,17,4,17,0.00
2012-10-28,48,40,35,36,31,28,84,71,53,30.18,30.08,23,7,24,0.00
2012-10-29,42,40,36,32,28,24,73,65,51,30.09,29.69,29,9,29,0.00
2012-10-30,39,36,33,36,32,25,92,87,58,29.70,29.44,27,10,28,0.25
2012-10-31,42,38,35,38,36,33,94,91,85,29.65,29.50,19,7,19,0.00
2012-11-1,49,41,37,37,33,28,91,72,50,29.76,29.64,20,7,20,0.00
2012-11-2,42,38,34,33,30,27,87,71,64,30.05,29.76,16,4,16,0.00
2012-11-3,42,34,26,32,28,24,94,80,64,30.16,30.05,15,2,15,0.00
2012-11-4,37,31,23,28,26,21,95,82,66,30.19,30.13,11,2,11,0.00
2012-11-5,43,29,19,30,24,17,95,81,54,30.21,30.13,9,1,10,0.00
2012-11-6,42,30,18,31,24,16,96,82,59,30.14,29.95,16,2,16,0.01
2012-11-7,48,35,26,35,29,23,93,79,53,30.13,29.95,11,2,12,0.00
2012-11-8,50,34,21,35,28,19,95,81,50,30.21,30.11,9,1,10,0.00
2012-11-9,55,42,27,44,36,25,96,81,60,30.17,30.04,13,2,13,0.02
2012-11-10,64,55,46,51,47,43,91,76,57,30.08,29.93,19,4,20,0.01
2012-11-11,67,59,50,50,45,39,76,60,47,30.06,29.88,30,8,30,0.00
2012-11-12,60,44,33,53,37,24,93,79,53,30.21,29.83,22,7,23,0.49
2012-11-13,33,31,22,26,22,19,89,70,61,30.52,30.21,17,3,18,0.00
2012-11-14,39,28,17,28,23,15,94,81,61,30.57,30.41,11,1,11,0.00
2012-11-15,46,34,26,34,29,24,94,82,60,30.41,30.30,7,1,7,0.00
2012-11-16,53,35,21,37,28,19,95,79,46,30.48,30.34,7,1,7,0.00
2012-11-17,52,37,22,37,30,20,94,79,51,30.58,30.48,11,1,12,0.01
2012-11-18,53,42,30,41,36,28,97,82,47,30.51,30.37,14,2,14,0.00
2012-11-19,71,40,27,47,33,26,96,77,31,30.37,30.14,9,1,9,0.11
2012-11-20,58,45,37,42,38,33,92,75,52,30.14,30.03,6,1,7,0.00
2012-11-21,58,42,30,46,38,28,97,85,62,30.20,30.11,10,1,10,0.00
2012-11-22,60,48,34,47,42,32,96,80,58,30.13,29.76,20,4,20,0.03
2012-11-23,52,39,31,49,33,23,92,78,68,29.99,29.66,31,10,31,0.12
2012-11-24,32,27,29,24,7,-100,73,60,63,30.10,29.98,22,-108,22,0.00
2012-11-25,36,32,27,29,25,21,83,76,69,30.02,29.82,14,4,15,0.00
2012-11-26,35,31,26,29,25,21,92,77,64,30.27,29.98,12,2,12,0.00
2012-11-27,35,28,20,22,18,15,82,68,50,30.35,30.22,10,2,10,0.00
2012-11-28,40,32,26,28,22,17,82,68,58,30.30,30.18,20,4,20,0.01
2012-11-29,47,37,29,31,27,23,87,69,51,30.28,30.15,15,3,16,0.00
2012-11-30,46,38,30,35,32,26,92,78,64,30.21,30.09,15,3,15,0.00
2012-12-1,55,44,35,49,41,33,96,87,74,30.21,29.96,22,5,22,0.00
2012-12-2,57,54,44,54,50,42,95,89,76,30.05,29.87,20,4,22,0.15
2012-12-3,61,53,39,59,51,38,97,95,86,30.07,29.86,19,4,21,0.01
2012-12-4,60,50,41,56,46,33,94,83,71,30.07,29.84,18,5,18,0.30
2012-12-5,41,31,21,33,24,18,92,75,58,30.36,30.07,15,4,15,0.02
2012-12-6,37,31,21,31,26,19,93,84,74,30.32,29.93,12,3,13,0.00
2012-12-7,42,39,34,41,37,31,97,93,86,29.94,29.83,7,1,7,0.08
2012-12-8,41,37,33,40,35,30,97,93,87,30.13,29.78,14,3,14,0.19
2012-12-9,38,36,33,37,33,30,97,92,84,30.13,29.61,19,5,19,0.09
2012-12-10,41,36,30,40,33,24,97,87,77,29.83,29.57,19,5,19,0.00
2012-12-11,36,29,25,28,23,21,92,80,63,30.13,29.83,15,3,17,0.00
2012-12-12,42,32,24,28,25,22,89,77,52,30.34,30.14,13,3,14,0.00
2012-12-13,44,34,25,30,27,22,90,75,54,30.34,30.13,14,4,15,0.00
2012-12-14,48,36,27,35,29,24,95,77,57,30.22,30.13,8,1,9,0.00
2012-12-15,44,37,31,43,34,29,96,89,73,30.14,29.65,15,4,15,0.13
2012-12-16,51,47,41,48,45,38,97,91,83,29.65,29.54,18,4,18,0.05
2012-12-17,41,39,37,38,35,33,90,85,80,29.69,29.58,10,2,11,0.00
2012-12-18,39,36,32,34,31,28,94,85,67,29.74,29.60,14,4,14,0.04
2012-12-19,40,36,30,35,33,28,96,90,77,30.08,29.68,9,2,10,0.01
2012-12-20,48,39,33,46,37,31,96,92,79,30.04,29.10,28,8,28,0.71
2012-12-21,33,32,30,32,28,24,95,86,74,29.88,29.12,33,9,33,0.02
2012-12-22,36,30,24,26,24,20,89,77,63,30.07,29.88,27,7,27,0.00
2012-12-23,35,26,17,27,22,14,94,82,71,30.02,29.87,12,2,12,0.00
2012-12-24,33,26,18,28,24,16,93,89,80,29.99,29.79,16,3,16,0.00
2012-12-25,32,28,20,26,23,18,93,83,74,30.28,29.98,12,3,12,0.01
2012-12-26,29,28,25,26,24,23,94,88,79,30.24,29.80,26,8,26,0.00
2012-12-27,32,24,13,26,21,11,92,88,75,30.14,29.87,13,4,13,0.00
2012-12-28,30,22,9,27,19,7,93,89,85,30.17,29.91,9,1,10,0.01
2012-12-29,28,26,22,26,24,20,94,91,87,30.06,29.79,10,4,10,0.08
2012-12-30,28,23,17,26,20,14,94,87,79,30.29,30.06,16,4,16,0.01
2012-12-31,35,28,17,29,23,15,90,82,73,30.18,29.92,20,5,20,0.00
2013-1-1,28,22,13,21,14,8,84,73,58,30.13,30.00,12,3,13,0.00